Flag for Hungary Weather past 2 weeks in Debrecen, Hungary

Now
90 °F

Sunny.


Feels Like: 87 °F
Forecast: 67 / 89 °F
Wind: 12 mph from Southeast

Location: Debrecen Airport

Current Time: Aug 1, 2014 at 6:16:20 PM

Latest Report: Aug 1, 2014 at 5:15 PM


Visibility: 10 mi

Pressure: 29.80 "Hg

Humidity: 29%

Dew point: 54 °F

Location of DebrecenLocation

Historic Weather in Debrecen — Graph

°F

Debrecen temperature yesterday

Maximum temperature yesterday: 84 °F (at 3:15 PM)
Minimum temperature yesterday: 66 °F (at 5:15 AM)
Average temperature yesterday: 76 °F

Past Weeks' High & Low Weather Summary

 TemperatureHumidityPressure
High90 °F (Jul 21, 2:45 PM)100% (Jul 25, 5:15 AM)30.04 "Hg (Jul 25, 5:15 AM)
Low61 °F (Jul 25, 5:15 AM)29% (Aug 1, 4:15 PM)29.74 "Hg (Jul 21, 6:45 PM)
Average76 °F68%29.88 "Hg
* Reported Jul 17 4:15 PM — Aug 1 4:45 PM, Debrecen, Weather by CustomWeather, © 2014

Note: Actual official high and low records may vary slightly from our data, if they occured in-between our weather recording intervals... More about our weather records

Advertising

Debrecen weather history for previous 24 hours

 ConditionsComfort  
Time TempWeatherWind HumidityBarometerVisibility
4:45 PM
Aug 1
90 °FSunny.10 mph29%29.80 "Hg10 mi
4:15 PM90 °FSunny.13 mph29%29.80 "Hg10 mi
3:45 PM90 °FSunny.15 mph31%29.80 "Hg10 mi
3:15 PM90 °FSunny.13 mph33%29.80 "Hg10 mi
2:45 PM88 °FSunny.14 mph33%29.80 "Hg10 mi
2:15 PM88 °FSunny.15 mph35%29.80 "Hg10 mi
1:45 PM88 °FSunny.13 mph38%29.83 "Hg10 mi
1:15 PM88 °FSunny.14 mph40%29.83 "Hg10 mi
12:45 PM86 °FSunny.10 mph40%29.83 "Hg10 mi
12:15 PM86 °FPassing clouds.10 mph46%29.83 "HgN/A
11:45 AM84 °FPassing clouds.9 mph45%29.83 "HgN/A
11:15 AM84 °FSunny.9 mph51%29.83 "Hg10 mi
10:45 AM82 °FSunny.9 mph55%29.83 "Hg10 mi
10:15 AM81 °FSunny.8 mph62%29.83 "Hg10 mi
9:45 AM79 °FSunny.8 mph65%29.83 "Hg10 mi
9:15 AM77 °FPassing clouds.7 mph74%29.83 "HgN/A
8:45 AM75 °FPassing clouds.5 mph78%29.83 "HgN/A
8:15 AM72 °FPassing clouds.6 mph83%29.83 "HgN/A
7:45 AM70 °FPassing clouds.8 mph88%29.83 "HgN/A
7:15 AM70 °FSunny.7 mph83%29.83 "Hg10 mi
6:45 AM70 °FSunny.6 mph83%29.83 "Hg10 mi
6:15 AM68 °FSunny.7 mph88%29.83 "Hg10 mi
5:45 AM68 °FClear.7 mph88%29.83 "Hg10 mi
4:45 AM68 °FClear.6 mph94%29.83 "Hg10 mi
8:45 PM
Jul 31
77 °FSunny.3 mph69%29.80 "Hg10 mi
8:15 PM79 °FSunny.3 mph65%29.80 "Hg10 mi
7:45 PM79 °FSunny.8 mph65%29.80 "Hg10 mi
7:15 PM81 °FSunny.8 mph62%29.80 "Hg10 mi
6:45 PM81 °FSunny.8 mph66%29.80 "Hg10 mi
6:15 PM82 °FSunny.12 mph62%29.80 "Hg10 mi
Weather by CustomWeather, © 2014

See weather overviewHow to use our weather pages